Regional Weather Roundup
Issued by NWS

Home | Current Version | Previous Version | Graphics & Text | Print | Product List | Glossary On
Versions: 1 2 3 4 5 6 7 8 9 10 11 12 13 14 15 16 17 18 19 20 21 22 23 24 25 26 27 28 29 30 31 32 33 34 35 36 37 38 39 40 41 42 43 44 45 46 47 48 49 50
000
ASUS43 KFSD 310702
RWRSD

WEATHER ROUNDUP FOR SOUTH DAKOTA
NATIONAL WEATHER SERVICE SIOUX FALLS SD
200 AM CDT MON AUG 31 2015

NOTE: "FAIR" INDICATES FEW OR NO CLOUDS BELOW 12,000 FEET WITH NO
SIGNIFICANT WEATHER AND/OR OBSTRUCTIONS TO VISIBILITY.


SDZ001>005-009-010-012>017-310800-
NORTHWEST AND NORTH CENTRAL SOUTH DAKOTA

CITY           SKY/WX    TMP DP  RH WIND       PRES   REMARKS
FAITH            N/A     77  52  41 S21       29.69R
MOBRIDGE       CLOUDY    73  61  65 S10       29.63F
$$

SDZ012>016-024>037-041>051-057-063-072>074-310800-
SOUTHWEST AND SOUTH CENTRAL SOUTH DAKOTA

CITY           SKY/WX    TMP DP  RH WIND       PRES   REMARKS
RAPID CTY ARPT PTCLDY    71  54  54 SW12      29.78S
PIERRE         PTCLDY    72  59  63 SE13      29.70S
CUSTER         PTCLDY    68  44  42 W6        29.98R
ELLSWORTH AFB  MOCLDY    71  55  57 SW7       29.77S
PHILIP         PTCLDY    79  48  33 S9        29.70S
PINE RIDGE     PTCLDY    76  45  33 S9G18     29.81S
WINNER         FAIR      75  56  51 S25G36    29.77S
$$

SDZ004>011-016>023-039-040-310800-
NORTHEAST SOUTH DAKOTA

CITY           SKY/WX    TMP DP  RH WIND       PRES   REMARKS
ABERDEEN       CLEAR     68  63  84 S16G26    29.73S
WATERTOWN      CLEAR     65  63  93 S14       29.83F
BROOKINGS      CLEAR     64  63  94 S12       29.90S
$$

SDZ017-020-022-023-036>040-048>070-310800-
SOUTHEAST SOUTH DAKOTA

CITY           SKY/WX    TMP DP  RH WIND       PRES   REMARKS
SIOUX FALLS    PTCLDY    66  64  93 S13       29.90S
HURON          CLEAR     67  65  93 S12       29.79F
MITCHELL       CLEAR     68  65  90 S15       29.83S
YANKTON        PTCLDY    68  64  88 S10       29.88S
$$

ABBREVIATIONS USED IN REMARKS
   TC - TEMPERATURE IN CELSIUS
  WCI - WIND CHILL INDEX
   HX - HEAT INDEX
  VSB - VISIBILITY



USA.gov is the U.S. government's official web portal to all federal, state and local government web resources and services.